����������;��������(kWh)
2018-12-10 00:00;83,85
2018-12-10 00:15;84,7
2018-12-10 00:30;84,25
2018-12-10 00:45;84,15
2018-12-10 01:00;85
2018-12-10 01:15;85,1
2018-12-10 01:30;84,15
2018-12-10 01:45;83
2018-12-10 02:00;82,75
2018-12-10 02:15;84,5
2018-12-10 02:30;82,95
2018-12-10 02:45;84,65
2018-12-10 03:00;82,45
2018-12-10 03:15;89,7
2018-12-10 03:30;95,85
2018-12-10 03:45;92,7
2018-12-10 04:00;95,35
2018-12-10 04:15;94,3
2018-12-10 04:30;93,95
2018-12-10 04:45;95,4
2018-12-10 05:00;93,15
2018-12-10 05:15;92,4
2018-12-10 05:30;95,9
2018-12-10 05:45;114,9
2018-12-10 06:00;115,95
2018-12-10 06:15;119,55
2018-12-10 06:30;110,5
2018-12-10 06:45;105,65
2018-12-10 07:00;107,5
2018-12-10 07:15;109,55
2018-12-10 07:30;109,2
2018-12-10 07:45;168,45
2018-12-10 08:00;151,8
2018-12-10 08:15;153,1
2018-12-10 08:30;150,4
2018-12-10 08:45;156,5
2018-12-10 09:00;189,6
2018-12-10 09:15;192,25
2018-12-10 09:30;196,05
2018-12-10 09:45;215,95
2018-12-10 10:00;221,85
2018-12-10 10:15;222,85
2018-12-10 10:30;231,35
2018-12-10 10:45;240,7
2018-12-10 11:00;235,15
2018-12-10 11:15;231,55
2018-12-10 11:30;247,7
2018-12-10 11:45;239,2
2018-12-10 12:00;239,25
2018-12-10 12:15;237
2018-12-10 12:30;240
2018-12-10 12:45;245,75
2018-12-10 13:00;251,1
2018-12-10 13:15;246,25
2018-12-10 13:30;255,35
2018-12-10 13:45;262,5
2018-12-10 14:00;259,5
2018-12-10 14:15;267,1
2018-12-10 14:30;259
2018-12-10 14:45;257,2
2018-12-10 15:00;248,8
2018-12-10 15:15;256,5
2018-12-10 15:30;251,3
2018-12-10 15:45;241,55
2018-12-10 16:00;224,15
2018-12-10 16:15;218,75
2018-12-10 16:30;211,95
2018-12-10 16:45;202,05
2018-12-10 17:00;201,65
2018-12-10 17:15;198,15
2018-12-10 17:30;192
2018-12-10 17:45;194,85
2018-12-10 18:00;188,8
2018-12-10 18:15;185
2018-12-10 18:30;184,1
2018-12-10 18:45;180,95
2018-12-10 19:00;181,15
2018-12-10 19:15;171,6
2018-12-10 19:30;166,7
2018-12-10 19:45;158,8
2018-12-10 20:00;147,1
2018-12-10 20:15;141,3
2018-12-10 20:30;135,65
2018-12-10 20:45;126
2018-12-10 21:00;120,4
2018-12-10 21:15;119,05
2018-12-10 21:30;121,2
2018-12-10 21:45;120,05
2018-12-10 22:00;116,25
2018-12-10 22:15;117,45
2018-12-10 22:30;112,65
2018-12-10 22:45;107,85
2018-12-10 23:00;114,05
2018-12-10 23:15;104,85
2018-12-10 23:30;107,75
2018-12-10 23:45;111,2
2018-12-11 00:00;100,65
2018-12-11 00:15;101,85
2018-12-11 00:30;97,8
2018-12-11 00:45;99,8
2018-12-11 01:00;100,65
2018-12-11 01:15;97,45
2018-12-11 01:30;99,65
2018-12-11 01:45;97,85
2018-12-11 02:00;99,85
2018-12-11 02:15;99,15
2018-12-11 02:30;95,7
2018-12-11 02:45;96
2018-12-11 03:00;95,3
2018-12-11 03:15;97,3
2018-12-11 03:30;97,05
2018-12-11 03:45;96,75
2018-12-11 04:00;107,9
2018-12-11 04:15;106,75
2018-12-11 04:30;107,25
2018-12-11 04:45;106,15
2018-12-11 05:00;105,15
2018-12-11 05:15;105,75
2018-12-11 05:30;100,3
2018-12-11 05:45;113,45
2018-12-11 06:00;126,35
2018-12-11 06:15;126,85
2018-12-11 06:30;123,05
2018-12-11 06:45;118,25
2018-12-11 07:00;119,9
2018-12-11 07:15;119,8
2018-12-11 07:30;121,6
2018-12-11 07:45;185,45
2018-12-11 08:00;143,45
2018-12-11 08:15;150,35
2018-12-11 08:30;163,35
2018-12-11 08:45;171
2018-12-11 09:00;198,2
2018-12-11 09:15;217,6
2018-12-11 09:30;225,2
2018-12-11 09:45;252,45
2018-12-11 10:00;258,85
2018-12-11 10:15;254,2
2018-12-11 10:30;253,6
2018-12-11 10:45;266
2018-12-11 11:00;266,35
2018-12-11 11:15;269,7
2018-12-11 11:30;282,35
2018-12-11 11:45;277,25
2018-12-11 12:00;271,3
2018-12-11 12:15;272,35
2018-12-11 12:30;252,5
2018-12-11 12:45;256,15
2018-12-11 13:00;257,85
2018-12-11 13:15;251,35
2018-12-11 13:30;268,7
2018-12-11 13:45;262,9
2018-12-11 14:00;253,9
2018-12-11 14:15;260,2
2018-12-11 14:30;249,55
2018-12-11 14:45;236,75
2018-12-11 15:00;238,7
2018-12-11 15:15;227,8
2018-12-11 15:30;230,5
2018-12-11 15:45;231,8
2018-12-11 16:00;221,95
2018-12-11 16:15;217,55
2018-12-11 16:30;214,3
2018-12-11 16:45;213,75
2018-12-11 17:00;203,7
2018-12-11 17:15;203,65
2018-12-11 17:30;195,4
2018-12-11 17:45;192,95
2018-12-11 18:00;190,45
2018-12-11 18:15;193,8
2018-12-11 18:30;197,95
2018-12-11 18:45;193,25
2018-12-11 19:00;192,95
2018-12-11 19:15;190
2018-12-11 19:30;182,9
2018-12-11 19:45;181,5
2018-12-11 20:00;168,25
2018-12-11 20:15;161,3
2018-12-11 20:30;160,9
2018-12-11 20:45;157,15
2018-12-11 21:00;156
2018-12-11 21:15;147,6
2018-12-11 21:30;140,4
2018-12-11 21:45;134,95
2018-12-11 22:00;135,8
2018-12-11 22:15;135,8
2018-12-11 22:30;130,25
2018-12-11 22:45;132,65
2018-12-11 23:00;139
2018-12-11 23:15;124,9
2018-12-11 23:30;126,4
2018-12-11 23:45;118,95
2018-12-12 00:00;108,95
2018-12-12 00:15;109,4
2018-12-12 00:30;105,4
2018-12-12 00:45;105,4
2018-12-12 01:00;104,55
2018-12-12 01:15;115,5
2018-12-12 01:30;113,2
2018-12-12 01:45;114,55
2018-12-12 02:00;116,15
2018-12-12 02:15;113,45
2018-12-12 02:30;113,25
2018-12-12 02:45;112,8
2018-12-12 03:00;111,4
2018-12-12 03:15;109,7
2018-12-12 03:30;110,15
2018-12-12 03:45;108,2
2018-12-12 04:00;109,6
2018-12-12 04:15;108,05
2018-12-12 04:30;109,05
2018-12-12 04:45;106,45
2018-12-12 05:00;108,4
2018-12-12 05:15;109,3
2018-12-12 05:30;109
2018-12-12 05:45;107
2018-12-12 06:00;109,2
2018-12-12 06:15;130,4
2018-12-12 06:30;131,3
2018-12-12 06:45;133,1
2018-12-12 07:00;137,3
2018-12-12 07:15;135,25
2018-12-12 07:30;133,6
2018-12-12 07:45;186,8
2018-12-12 08:00;156,05
2018-12-12 08:15;157,05
2018-12-12 08:30;165,5
2018-12-12 08:45;172,75
2018-12-12 09:00;188,65
2018-12-12 09:15;202,35
2018-12-12 09:30;209,4
2018-12-12 09:45;221,3
2018-12-12 10:00;224,9
2018-12-12 10:15;232,75
2018-12-12 10:30;236,35
2018-12-12 10:45;244,9
2018-12-12 11:00;244,8
2018-12-12 11:15;241,15
2018-12-12 11:30;251,6
2018-12-12 11:45;248,05
2018-12-12 12:00;243,6
2018-12-12 12:15;255
2018-12-12 12:30;242,9
2018-12-12 12:45;236,7
2018-12-12 13:00;243,7
2018-12-12 13:15;248,4
2018-12-12 13:30;242,75
2018-12-12 13:45;250,4
2018-12-12 14:00;244,2
2018-12-12 14:15;238
2018-12-12 14:30;239,05
2018-12-12 14:45;231,9
2018-12-12 15:00;223,5
2018-12-12 15:15;221,3
2018-12-12 15:30;208,9
2018-12-12 15:45;205,85
2018-12-12 16:00;203,5
2018-12-12 16:15;199,4
2018-12-12 16:30;191,25
2018-12-12 16:45;199,2
2018-12-12 17:00;191,65
2018-12-12 17:15;184,35
2018-12-12 17:30;187,65
2018-12-12 17:45;191,1
2018-12-12 18:00;187,65
2018-12-12 18:15;177,4
2018-12-12 18:30;176,7
2018-12-12 18:45;173,55
2018-12-12 19:00;175,65
2018-12-12 19:15;170,55
2018-12-12 19:30;167,3
2018-12-12 19:45;167,95
2018-12-12 20:00;153,25
2018-12-12 20:15;146,05
2018-12-12 20:30;144,5
2018-12-12 20:45;144,1
2018-12-12 21:00;139,3
2018-12-12 21:15;132,2
2018-12-12 21:30;131,15
2018-12-12 21:45;124
2018-12-12 22:00;113,95
2018-12-12 22:15;107,9
2018-12-12 22:30;106,6
2018-12-12 22:45;105,65
2018-12-12 23:00;109,7
2018-12-12 23:15;100,05
2018-12-12 23:30;103,4
2018-12-12 23:45;109,1
2018-12-13 00:00;95,9
2018-12-13 00:15;94,45
2018-12-13 00:30;96,95
2018-12-13 00:45;99,6
2018-12-13 01:00;96,1
2018-12-13 01:15;98,1
2018-12-13 01:30;100,35
2018-12-13 01:45;106,85
2018-12-13 02:00;107
2018-12-13 02:15;107,8
2018-12-13 02:30;110
2018-12-13 02:45;106,3
2018-12-13 03:00;108,3
2018-12-13 03:15;109,35
2018-12-13 03:30;103,25
2018-12-13 03:45;101,35
2018-12-13 04:00;102,15
2018-12-13 04:15;102,45
2018-12-13 04:30;100,75
2018-12-13 04:45;101,7
2018-12-13 05:00;103,15
2018-12-13 05:15;101,35
2018-12-13 05:30;99
2018-12-13 05:45;102,9
2018-12-13 06:00;104,2
2018-12-13 06:15;103,85
2018-12-13 06:30;100,95
2018-12-13 06:45;116,3
2018-12-13 07:00;133
2018-12-13 07:15;137,5
2018-12-13 07:30;143,6
2018-12-13 07:45;197,95
2018-12-13 08:00;148,9
2018-12-13 08:15;161,1
2018-12-13 08:30;164,85
2018-12-13 08:45;172,9
2018-12-13 09:00;191,35
2018-12-13 09:15;194,9
2018-12-13 09:30;200,55
2018-12-13 09:45;214,85
2018-12-13 10:00;227,45
2018-12-13 10:15;228,05
2018-12-13 10:30;251,65
2018-12-13 10:45;286,5
2018-12-13 11:00;306,2
2018-12-13 11:15;266,15
2018-12-13 11:30;272,35
2018-12-13 11:45;262
2018-12-13 12:00;263,85
2018-12-13 12:15;263,05
2018-12-13 12:30;269,9
2018-12-13 12:45;274,5
2018-12-13 13:00;261,55
2018-12-13 13:15;267,75
2018-12-13 13:30;254
2018-12-13 13:45;271,5
2018-12-13 14:00;265,7
2018-12-13 14:15;286,85
2018-12-13 14:30;244,65
2018-12-13 14:45;265,3
2018-12-13 15:00;252,05
2018-12-13 15:15;246,9
2018-12-13 15:30;235,45
2018-12-13 15:45;219
2018-12-13 16:00;215,15
2018-12-13 16:15;208,25
2018-12-13 16:30;201,7
2018-12-13 16:45;194,7
2018-12-13 17:00;190,4
2018-12-13 17:15;191,55
2018-12-13 17:30;189,2
2018-12-13 17:45;191,45
2018-12-13 18:00;185,3
2018-12-13 18:15;184
2018-12-13 18:30;182,4
2018-12-13 18:45;176,9
2018-12-13 19:00;171,8
2018-12-13 19:15;167,3
2018-12-13 19:30;167,85
2018-12-13 19:45;163,85
2018-12-13 20:00;155,9
2018-12-13 20:15;148,15
2018-12-13 20:30;133,5
2018-12-13 20:45;122,5
2018-12-13 21:00;123,35
2018-12-13 21:15;118,9
2018-12-13 21:30;118
2018-12-13 21:45;110,6
2018-12-13 22:00;107,35
2018-12-13 22:15;109
2018-12-13 22:30;105,65
2018-12-13 22:45;104,5
2018-12-13 23:00;108,65
2018-12-13 23:15;103,8
2018-12-13 23:30;101,05
2018-12-13 23:45;102,9
2018-12-14 00:00;96,4
2018-12-14 00:15;93,45
2018-12-14 00:30;93,45
2018-12-14 00:45;95,85
2018-12-14 01:00;92,6
2018-12-14 01:15;92,85
2018-12-14 01:30;94,15
2018-12-14 01:45;102,1
2018-12-14 02:00;102,95
2018-12-14 02:15;105,3
2018-12-14 02:30;105,4
2018-12-14 02:45;105,05
2018-12-14 03:00;103,5
2018-12-14 03:15;99,75
2018-12-14 03:30;97,55
2018-12-14 03:45;116,85
2018-12-14 04:00;124,6
2018-12-14 04:15;130,2
2018-12-14 04:30;117,8
2018-12-14 04:45;114,45
2018-12-14 05:00;110,1
2018-12-14 05:15;110,05
2018-12-14 05:30;109,9
2018-12-14 05:45;114,7
2018-12-14 06:00;109,75
2018-12-14 06:15;111
2018-12-14 06:30;111,45
2018-12-14 06:45;111,5
2018-12-14 07:00;113,9
2018-12-14 07:15;117,9
2018-12-14 07:30;126,4
2018-12-14 07:45;178,55
2018-12-14 08:00;197,6
2018-12-14 08:15;146,15
2018-12-14 08:30;149,1
2018-12-14 08:45;167,65
2018-12-14 09:00;174,4
2018-12-14 09:15;199,05
2018-12-14 09:30;194,4
2018-12-14 09:45;201,35
2018-12-14 10:00;201,8
2018-12-14 10:15;215,65
2018-12-14 10:30;227,15
2018-12-14 10:45;218,85
2018-12-14 11:00;228
2018-12-14 11:15;219,5
2018-12-14 11:30;230,5
2018-12-14 11:45;217,7
2018-12-14 12:00;219,2
2018-12-14 12:15;214,1
2018-12-14 12:30;209,3
2018-12-14 12:45;212,55
2018-12-14 13:00;193,65
2018-12-14 13:15;193,45
2018-12-14 13:30;199,7
2018-12-14 13:45;191,45
2018-12-14 14:00;198,55
2018-12-14 14:15;185,5
2018-12-14 14:30;185,45
2018-12-14 14:45;196,55
2018-12-14 15:00;176,05
2018-12-14 15:15;177,1
2018-12-14 15:30;171,75
2018-12-14 15:45;162,95
2018-12-14 16:00;157,45
2018-12-14 16:15;153,65
2018-12-14 16:30;145,9
2018-12-14 16:45;145,85
2018-12-14 17:00;142,75
2018-12-14 17:15;152,65
2018-12-14 17:30;139,35
2018-12-14 17:45;147,4
2018-12-14 18:00;146
2018-12-14 18:15;150,45
2018-12-14 18:30;149,15
2018-12-14 18:45;150,85
2018-12-14 19:00;141,05
2018-12-14 19:15;138,5
2018-12-14 19:30;131,8
2018-12-14 19:45;131,65
2018-12-14 20:00;131,2
2018-12-14 20:15;125,05
2018-12-14 20:30;127,5
2018-12-14 20:45;125,5
2018-12-14 21:00;122,45
2018-12-14 21:15;118,25
2018-12-14 21:30;113,55
2018-12-14 21:45;99,9
2018-12-14 22:00;98,35
2018-12-14 22:15;96,4
2018-12-14 22:30;91,4
2018-12-14 22:45;90,95
2018-12-14 23:00;98,9
2018-12-14 23:15;96,6
2018-12-14 23:30;97,5
2018-12-14 23:45;97,5
2018-12-15 00:00;89,35
2018-12-15 00:15;88,6
2018-12-15 00:30;89,55
2018-12-15 00:45;92,25
2018-12-15 01:00;89,45
2018-12-15 01:15;89,25
2018-12-15 01:30;89,55
2018-12-15 01:45;90,65
2018-12-15 02:00;90,25
2018-12-15 02:15;90,45
2018-12-15 02:30;89,45
2018-12-15 02:45;87,05
2018-12-15 03:00;87
2018-12-15 03:15;89,8
2018-12-15 03:30;87,7
2018-12-15 03:45;88
2018-12-15 04:00;89,9
2018-12-15 04:15;86,75
2018-12-15 04:30;85,85
2018-12-15 04:45;89,15
2018-12-15 05:00;86,5
2018-12-15 05:15;83,8
2018-12-15 05:30;86,25
2018-12-15 05:45;83,95
2018-12-15 06:00;83,25
2018-12-15 06:15;82,8
2018-12-15 06:30;83
2018-12-15 06:45;80,55
2018-12-15 07:00;81,7
2018-12-15 07:15;80,85
2018-12-15 07:30;74,45
2018-12-15 07:45;73,55
2018-12-15 08:00;76
2018-12-15 08:15;75,4
2018-12-15 08:30;80,3
2018-12-15 08:45;81,9
2018-12-15 09:00;79,7
2018-12-15 09:15;79,8
2018-12-15 09:30;82,9
2018-12-15 09:45;81
2018-12-15 10:00;83,25
2018-12-15 10:15;84,85
2018-12-15 10:30;84,6
2018-12-15 10:45;85,3
2018-12-15 11:00;86,25
2018-12-15 11:15;89,25
2018-12-15 11:30;87,8
2018-12-15 11:45;88,75
2018-12-15 12:00;87,05
2018-12-15 12:15;89,9
2018-12-15 12:30;84,4
2018-12-15 12:45;80,55
2018-12-15 13:00;81,95
2018-12-15 13:15;83,8
2018-12-15 13:30;87,6
2018-12-15 13:45;87,6
2018-12-15 14:00;87,7
2018-12-15 14:15;90,3
2018-12-15 14:30;90,65
2018-12-15 14:45;89,8
2018-12-15 15:00;90,95
2018-12-15 15:15;90
2018-12-15 15:30;89,9
2018-12-15 15:45;92,3
2018-12-15 16:00;95,65
2018-12-15 16:15;91,75
2018-12-15 16:30;92,45
2018-12-15 16:45;94,3
2018-12-15 17:00;96,5
2018-12-15 17:15;96,2
2018-12-15 17:30;97,25
2018-12-15 17:45;105,25
2018-12-15 18:00;102,35
2018-12-15 18:15;102,4
2018-12-15 18:30;100,45
2018-12-15 18:45;101,55
2018-12-15 19:00;99,35
2018-12-15 19:15;100
2018-12-15 19:30;102,35
2018-12-15 19:45;99,45
2018-12-15 20:00;96,8
2018-12-15 20:15;94,1
2018-12-15 20:30;94,5
2018-12-15 20:45;100,5
2018-12-15 21:00;100,75
2018-12-15 21:15;96,3
2018-12-15 21:30;98
2018-12-15 21:45;92,35
2018-12-15 22:00;88,45
2018-12-15 22:15;89,2
2018-12-15 22:30;86,95
2018-12-15 22:45;87,25
2018-12-15 23:00;93,25
2018-12-15 23:15;88,85
2018-12-15 23:30;92,45
2018-12-15 23:45;96,75
2018-12-16 00:00;87,55
2018-12-16 00:15;86,3
2018-12-16 00:30;87,45
2018-12-16 00:45;85,8
2018-12-16 01:00;85,35
2018-12-16 01:15;84,25
2018-12-16 01:30;82,95
2018-12-16 01:45;85,9
2018-12-16 02:00;83,95
2018-12-16 02:15;81,8
2018-12-16 02:30;84
2018-12-16 02:45;82
2018-12-16 03:00;82,85
2018-12-16 03:15;85,55
2018-12-16 03:30;82
2018-12-16 03:45;80,9
2018-12-16 04:00;84,4
2018-12-16 04:15;81,6
2018-12-16 04:30;82,1
2018-12-16 04:45;84,1
2018-12-16 05:00;84,35
2018-12-16 05:15;79,5
2018-12-16 05:30;80,1
2018-12-16 05:45;78,3
2018-12-16 06:00;79,05
2018-12-16 06:15;79,55
2018-12-16 06:30;78,05
2018-12-16 06:45;77,95
2018-12-16 07:00;78,2
2018-12-16 07:15;80,25
2018-12-16 07:30;76,1
2018-12-16 07:45;75,4
2018-12-16 08:00;76,85
2018-12-16 08:15;73,95
2018-12-16 08:30;78,7
2018-12-16 08:45;78,45
2018-12-16 09:00;74,9
2018-12-16 09:15;77,95
2018-12-16 09:30;79,85
2018-12-16 09:45;79,6
2018-12-16 10:00;77,9
2018-12-16 10:15;84,15
2018-12-16 10:30;82,9
2018-12-16 10:45;79,7
2018-12-16 11:00;81,15
2018-12-16 11:15;83
2018-12-16 11:30;82,05
2018-12-16 11:45;84,1
2018-12-16 12:00;83,25
2018-12-16 12:15;83,05
2018-12-16 12:30;83,9
2018-12-16 12:45;88,8
2018-12-16 13:00;85,4
2018-12-16 13:15;84,95
2018-12-16 13:30;86,35
2018-12-16 13:45;78,75
2018-12-16 14:00;0
2018-12-16 14:15;0
2018-12-16 14:30;0
2018-12-16 14:45;82,6
2018-12-16 15:00;88,3
2018-12-16 15:15;89,35
2018-12-16 15:30;88,3
2018-12-16 15:45;84,45
2018-12-16 16:00;80,9
2018-12-16 16:15;81,7
2018-12-16 16:30;81,3
2018-12-16 16:45;81,15
2018-12-16 17:00;86,25
2018-12-16 17:15;88,45
2018-12-16 17:30;87,7
2018-12-16 17:45;93,7
2018-12-16 18:00;96,8
2018-12-16 18:15;96
2018-12-16 18:30;101,55
2018-12-16 18:45;101,6
2018-12-16 19:00;96,35
2018-12-16 19:15;95,9
2018-12-16 19:30;94,05
2018-12-16 19:45;95,7
2018-12-16 20:00;97,25
2018-12-16 20:15;97,6
2018-12-16 20:30;96,35
2018-12-16 20:45;92,65
2018-12-16 21:00;94,4
2018-12-16 21:15;91,5
2018-12-16 21:30;92,1
2018-12-16 21:45;89,35
2018-12-16 22:00;89,35
2018-12-16 22:15;89,2
2018-12-16 22:30;90,4
2018-12-16 22:45;92
2018-12-16 23:00;94,85
2018-12-16 23:15;89,7
2018-12-16 23:30;92,45
2018-12-16 23:45;100,2

